Weather History for Flag Island, MN

Change the Weather History Date:

Thursday, April 17, 2014

  Actual Average Record
Temperature  
Mean Temperature 25 °F -  
Max Temperature 35 °F 42 °F 60 °F (2005)
Min Temperature 15 °F 26 °F 15 °F (2014)
Degree Days  
Heating Degree Days 40    
Moisture  
Dew Point 7 °F    
Average Humidity 46    
Maximum Humidity 68    
Minimum Humidity 24    
Precipitation  
Precipitation 0.00 in - - ()
Sea Level Pressure  
Sea Level Pressure 30.31 in    
Wind  
Wind Speed 5 mph (North)    
Max Wind Speed 9 mph    
Max Gust Speed -    
Visibility 10 miles    
Events      
Averages and records for this station are not official NWS values.
T = Trace of Precipitation, MM = Missing Value Source: NWS Daily Summary

Daily Weather History Graph

Daily Weather History Graph

Search for Another Location

Airport:

Trip Planner

Search our weather history database for the weather conditions in past years. The results will help you decide how hot, cold, wet, or windy it might be!

Date:

Astronomy

Apr. 17, 2014 Rise Set
Actual Time 6:23 AM CDT 8:15 PM CDT
Civil Twilight 5:50 AM CDT 8:49 PM CDT
Nautical Twilight 5:08 AM CDT 9:31 PM CDT
Astronomical Twilight 4:22 AM CDT 10:17 PM CDT
Moon 11:13 PM CDT (4/17) 7:46 AM CDT (4/17)
Length of Visible Light 14h 59m
Length of Day
13h 51m
Waning Gibbous, 93% of the Moon is Illuminated
Apr 17
Waning Gibbous
Apr 22
Last Quarter
Apr 29
New
May 6
First Quarter
May 14
Full

Hourly Weather History & Observations

Time (CDT) Temp. Windchill Dew Point Humidity Pressure Visibility Wind Dir Wind Speed Gust Speed Precip Events Conditions
12:13 AM 24.8 °F 19.1 °F 6.8 °F 46% 30.31 in 10.0 mi NNE 4.6 mph - N/A   Clear
12:33 AM 23.0 °F 18.4 °F 6.8 °F 50% 30.31 in 10.0 mi NNE 3.5 mph - N/A   Clear
12:54 AM 23.0 °F 15.8 °F 6.8 °F 50% 30.31 in 10.0 mi NNE 5.8 mph - N/A   Clear
1:13 AM 21.2 °F 13.6 °F 6.8 °F 54% 30.31 in 10.0 mi NNE 5.8 mph - N/A   Clear
1:33 AM 21.2 °F 14.9 °F 6.8 °F 54% 30.31 in 10.0 mi North 4.6 mph - N/A   Clear
1:54 AM 21.2 °F 14.9 °F 6.8 °F 54% 30.32 in 10.0 mi North 4.6 mph - N/A   Clear
2:13 AM 19.4 °F 12.8 °F 6.8 °F 58% 30.31 in 10.0 mi NNE 4.6 mph - N/A   Clear
2:33 AM 21.2 °F 13.6 °F 5.0 °F 50% 30.31 in 10.0 mi NNE 5.8 mph - N/A   Clear
2:54 AM 19.4 °F 10.4 °F 5.0 °F 54% 30.31 in 10.0 mi North 6.9 mph - N/A   Clear
3:13 AM 19.4 °F 12.8 °F 5.0 °F 54% 30.31 in 10.0 mi NNE 4.6 mph - N/A   Clear
3:33 AM 19.4 °F 11.5 °F 5.0 °F 54% 30.31 in 10.0 mi North 5.8 mph - N/A   Clear
3:54 AM 19.4 °F 12.8 °F 5.0 °F 54% 30.31 in 10.0 mi North 4.6 mph - N/A   Clear
4:13 AM 17.6 °F 10.7 °F 6.8 °F 63% 30.31 in 10.0 mi North 4.6 mph - N/A   Clear
4:33 AM 17.6 °F 12.3 °F 6.8 °F 63% 30.32 in 10.0 mi NNW 3.5 mph - N/A   Clear
4:53 AM 17.6 °F 10.7 °F 6.8 °F 63% 30.32 in 10.0 mi North 4.6 mph - N/A   Clear
5:13 AM 15.8 °F 7.2 °F 6.8 °F 68% 30.31 in 10.0 mi North 5.8 mph - N/A   Clear
5:34 AM 17.6 °F 8.2 °F 5.0 °F 58% 30.32 in 10.0 mi North 6.9 mph - N/A   Clear
5:53 AM 15.8 °F 6.1 °F 5.0 °F 62% 30.32 in 10.0 mi North 6.9 mph - N/A   Clear
6:13 AM 15.8 °F 5.1 °F 5.0 °F 62% 30.32 in 10.0 mi North 8.1 mph - N/A   Clear
6:34 AM 15.8 °F 7.2 °F 5.0 °F 62% 30.33 in 10.0 mi North 5.8 mph - N/A   Clear
6:53 AM 15.8 °F 8.6 °F 6.8 °F 68% 30.33 in 10.0 mi North 4.6 mph - N/A   Clear
7:13 AM 15.8 °F 10.2 °F 6.8 °F 68% 30.34 in 10.0 mi North 3.5 mph - N/A   Clear
7:34 AM 17.6 °F 9.3 °F 6.8 °F 63% 30.34 in 10.0 mi North 5.8 mph - N/A   Clear
7:53 AM 17.6 °F 8.2 °F 6.8 °F 63% 30.34 in 10.0 mi NNE 6.9 mph - N/A   Clear
8:13 AM 19.4 °F 10.4 °F 6.8 °F 58% 30.35 in 10.0 mi NNE 6.9 mph - N/A   Clear
8:34 AM 21.2 °F 12.6 °F 5.0 °F 50% 30.35 in 10.0 mi NNE 6.9 mph - N/A   Clear
8:53 AM 21.2 °F 13.6 °F 8.6 °F 58% 30.35 in 10.0 mi North 5.8 mph - N/A   Clear
9:13 AM 21.2 °F 13.6 °F 10.4 °F 63% 30.35 in 10.0 mi North 5.8 mph - N/A   Clear
9:34 AM 23.0 °F 17.0 °F 10.4 °F 59% 30.35 in 10.0 mi NNW 4.6 mph - N/A   Clear
9:53 AM 24.8 °F 19.1 °F 12.2 °F 59% 30.35 in 10.0 mi NW 4.6 mph - N/A   Clear
10:13 AM 24.8 °F 16.9 °F 12.2 °F 59% 30.35 in 10.0 mi NW 6.9 mph - N/A   Clear
10:33 AM 26.6 °F 18.2 °F 12.2 °F 55% 30.35 in 10.0 mi NNW 8.1 mph - N/A   Clear
10:53 AM 26.6 °F 19.1 °F 12.2 °F 55% 30.35 in 10.0 mi NNW 6.9 mph - N/A   Clear
11:14 AM 28.4 °F 23.3 °F 12.2 °F 51% 30.34 in 10.0 mi North 4.6 mph - N/A   Clear
11:33 AM 30.2 °F 25.4 °F 12.2 °F 47% 30.34 in 10.0 mi North 4.6 mph - N/A   Clear
12:13 PM 30.2 °F 23.4 °F 10.4 °F 44% 30.33 in 10.0 mi North 6.9 mph - N/A   Clear
12:33 PM 32.0 °F 24.2 °F 8.6 °F 38% 30.33 in 10.0 mi North 9.2 mph - N/A   Clear
12:53 PM 32.0 °F 24.8 °F 10.4 °F 41% 30.32 in 10.0 mi North 8.1 mph - N/A   Clear
1:13 PM 33.8 °F 27.7 °F 8.6 °F 35% 30.32 in 10.0 mi North 6.9 mph - N/A   Clear
1:33 PM 33.8 °F 27.0 °F 8.6 °F 35% 30.32 in 10.0 mi North 8.1 mph - N/A   Clear
1:53 PM 33.8 °F 26.4 °F 6.8 °F 32% 30.31 in 10.0 mi NNE 9.2 mph - N/A   Clear
2:13 PM 33.8 °F 27.0 °F 6.8 °F 32% 30.31 in 10.0 mi North 8.1 mph - N/A   Clear
2:33 PM 33.8 °F 27.0 °F 1.4 °F 25% 30.31 in 10.0 mi North 8.1 mph - N/A   Clear
2:53 PM 35.6 °F 29.2 °F 3.2 °F 26% 30.31 in 10.0 mi North 8.1 mph - N/A   Clear
3:13 PM 35.6 °F 30.7 °F 6.8 °F 30% 30.30 in 10.0 mi North 5.8 mph - N/A   Clear
3:17 PM 35.6 °F 31.7 °F 8.6 °F 33% 30.30 in 10.0 mi North 4.6 mph - N/A   Clear
3:41 PM 35.6 °F 29.9 °F 5.0 °F 28% 30.29 in 10.0 mi North 6.9 mph - N/A   Clear
4:01 PM 35.6 °F 29.9 °F 5.0 °F 28% 30.29 in 10.0 mi NE 6.9 mph - N/A   Clear
4:21 PM 35.6 °F 31.7 °F 5.0 °F 28% 30.29 in 10.0 mi NNE 4.6 mph - N/A   Clear
4:41 PM 35.6 °F 32.8 °F 1.4 °F 24% 30.28 in 10.0 mi NNE 3.5 mph - N/A   Clear
5:01 PM 35.6 °F 31.7 °F 8.6 °F 33% 30.28 in 10.0 mi NNE 4.6 mph - N/A   Clear
5:21 PM 35.6 °F 32.8 °F 5.0 °F 28% 30.28 in 10.0 mi NNE 3.5 mph - N/A   Clear
5:53 PM 35.6 °F 32.8 °F 5.0 °F 28% 30.28 in 10.0 mi North 3.5 mph - N/A   Clear
6:13 PM 35.6 °F - 10.4 °F 35% 30.28 in 10.0 mi Calm Calm - N/A   Clear
6:34 PM 35.6 °F - 6.8 °F 30% 30.27 in 10.0 mi Calm Calm - N/A   Clear
6:53 PM 35.6 °F - 3.2 °F 26% 30.27 in 10.0 mi Calm Calm - N/A   Clear
7:13 PM 35.6 °F - 5.0 °F 28% 30.27 in 10.0 mi Calm Calm - N/A   Clear
7:32 PM 35.6 °F - 5.0 °F 28% 30.27 in 10.0 mi Calm Calm - N/A   Clear
7:53 PM 35.6 °F - 5.0 °F 28% 30.28 in 10.0 mi Calm Calm - N/A   Clear
8:13 PM 33.8 °F - 8.6 °F 35% 30.28 in 10.0 mi Calm Calm - N/A   Clear
8:33 PM 33.8 °F - 6.8 °F 32% 30.28 in 10.0 mi Calm Calm - N/A   Clear
8:53 PM 30.2 °F 26.7 °F 6.8 °F 37% 30.29 in 10.0 mi SW 3.5 mph - N/A   Clear
9:14 PM 32.0 °F 28.7 °F 5.0 °F 32% 30.29 in 10.0 mi SW 3.5 mph - N/A   Clear
9:33 PM 30.2 °F - 6.8 °F 37% 30.29 in 10.0 mi Calm Calm - N/A   Clear
9:54 PM 30.2 °F - 8.6 °F 40% 30.30 in 10.0 mi Calm Calm - N/A   Clear
10:13 PM 28.4 °F - 12.2 °F 51% 30.30 in 10.0 mi Calm Calm - N/A   Clear
10:33 PM 26.6 °F - 12.2 °F 55% 30.30 in 10.0 mi Calm Calm - N/A   Clear
10:54 PM 26.6 °F - 10.4 °F 51% 30.30 in 10.0 mi Calm Calm - N/A   Clear
11:13 PM 28.4 °F - 6.8 °F 40% 30.30 in 10.0 mi Calm Calm - N/A   Clear
11:33 PM 28.4 °F 24.6 °F 6.8 °F 40% 30.30 in 10.0 mi North 3.5 mph - N/A   Clear
11:53 PM 26.6 °F 22.6 °F 10.4 °F 51% 30.30 in 10.0 mi North 3.5 mph - N/A   Clear